This demonstration page uses our WeatherBlox Daily Observations layout. Learn more.

Hourly Observations for August 22, 2017

Temp ( °F °C ) Dew Point ( °F °C ) Humidity (%) Winds ( mph kmh ) Pressure ( in mb ) Visibility ( mi km ) Precip ( " mm )
12:15 am 00:15 Mostly Cloudy 69 20.6 64 18 85 85 NE 9 15 30.03 1017 10 16.09344 0 0
12:35 am 00:35 Partly Cloudy 68 19.8 64 17.5 87 87 NNE 9 15 30.03 1017 10 16.09344 0 0
12:55 am 00:55 Partly Cloudy 67 19.5 63 17.1 86 86 NNE 6 9 30.03 1017 10 16.09344 0 0
1:15 am 01:15 Clear 66 18.9 63 17 89 89 N 5 7 30.03 1017 10 16.09344 0 0
1:35 am 01:35 Clear 65 18.5 63 17 91 91 N 3 6 30.03 1017 10 16.09344 0 0
1:55 am 01:55 Clear 65 18.1 62 16.7 92 92 N 3 6 30.03 1017 10 16.09344 0 0
2:15 am 02:15 Clear 64 17.5 61 16.3 93 93 N 5 7 30.03 1017 10 16.09344 0 0
2:35 am 02:35 Clear 64 17.5 62 16.5 94 94 N 5 7 30.03 1017 10 16.09344 0 0
2:55 am 02:55 Clear 64 17.5 62 16.5 94 94 N 5 7 30.09 1019 10 16.09344 0 0
3:15 am 03:15 Clear 64 17.5 62 16.5 94 94 N 6 9 30.09 1019 7 11.265408 0 0
3:35 am 03:35 Clear 63 17.2 62 16.4 95 95 NNW 5 7 30.09 1019 7 11.265408 0 0
3:55 am 03:55 Clear with Mist and Fog 64 17.5 62 16.6 95 95 NNW 7 11 30.09 1019 5 8.04672 0 0
4:15 am 04:15 Clear 64 17.5 62 16.6 95 95 N 7 11 30.09 1019 7 11.265408 0 0
4:35 am 04:35 Clear 63 17.4 62 16.4 94 94 N 8 13 30.09 1019 10 16.09344 0 0
4:55 am 04:55 Clear 64 17.5 60 15.7 89 89 N 10 17 30.09 1019 10 16.09344 0 0
5:15 am 05:15 Clear 63 17 58 14.7 86 86 N 10 17 30.12 1020 10 16.09344 0 0
5:35 am 05:35 Clear 62 16.4 57 14 86 86 N 9 15 30.12 1020 10 16.09344 0 0
5:55 am 05:55 Clear 61 16 56 13.2 84 84 N 9 15 30.12 1020 10 16.09344 0 0
6:15 am 06:15 Clear 60 15.3 55 12.6 84 84 NNE 7 11 30.12 1020 10 16.09344 0 0
6:35 am 06:35 Clear 59 14.8 54 12 83 83 NNE 7 11 30.12 1020 10 16.09344 0 0
6:55 am 06:55 Clear 58 14.5 53 11.7 83 83 NNE 6 9 30.18 1022 10 16.09344 0 0
7:15 am 07:15 Sunny 57 14 53 11.6 86 86 NNE 7 11 30.18 1022 10 16.09344 0 0
7:35 am 07:35 Sunny 58 14.2 53 11.6 84 84 NNE 6 9 30.18 1022 10 16.09344 0 0
7:55 am 07:55 Sunny 58 14.5 53 11.8 84 84 NNE 6 9 30.21 1023 10 16.09344 0 0
8:15 am 08:15 Sunny 60 15.3 54 12.3 82 82 Calm 30.18 1022 10 16.09344 0 0
8:35 am 08:35 Sunny 61 16.1 55 12.6 80 80 NE 3 6 30.18 1022 10 16.09344 0 0
8:55 am 08:55 Sunny 62 16.8 55 12.6 76 76 NE 6 9 30.18 1022 10 16.09344 0 0
9:15 am 09:15 Sunny 64 17.7 55 12.8 73 73 ENE 8 13 30.18 1022 10 16.09344 0 0
9:35 am 09:35 Sunny 65 18.5 54 12.3 67 67 ENE 9 15 30.18 1022 10 16.09344 0 0
9:55 am 09:55 Sunny 67 19.2 54 12.2 64 64 NE 13 20 30.15 1021 10 16.09344 0 0
10:15 am 10:15 Sunny 68 19.9 53 11.7 59 59 ENE 10 17 30.18 1022 10 16.09344 0 0
10:35 am 10:35 Sunny 69 20.6 54 12 58 58 ENE 9 15 30.18 1022 10 16.09344 0 0
10:55 am 10:55 Sunny 70 21.1 53 11.6 55 55 E 8 13 30.18 1022 10 16.09344 0 0
11:15 am 11:15 Sunny 71 21.5 52 11.2 52 52 E 6 9 30.18 1022 10 16.09344 0 0
11:35 am 11:35 Sunny 71 21.9 51 10.5 48 48 E 6 9 30.18 1022 10 16.09344 0 0
11:55 am 11:55 Sunny 72 22.2 51 10.7 48 48 E 5 7 30.21 1023 10 16.09344 0 0
12:15 pm 12:15 Sunny 73 22.5 52 11.1 49 49 E 5 7 30.15 1021 10 16.09344 0 0
12:35 pm 12:35 Sunny 73 22.9 51 10.7 46 46 Calm 30.15 1021 10 16.09344 0 0
12:55 pm 12:55 Sunny 73 23 51 10.6 46 46 ESE 6 9 30.15 1021 10 16.09344 0 0
1:15 pm 13:15 Sunny 74 23.1 52 11.3 47 47 ENE 5 7 30.15 1021 10 16.09344 0 0
1:35 pm 13:35 Sunny 73 22.8 50 9.9 44 44 Calm 30.15 1021 10 16.09344 0 0
1:55 pm 13:55 Sunny 74 23.2 52 11 46 46 Calm 30.15 1021 10 16.09344 0 0
2:15 pm 14:15 Sunny 74 23.5 53 11.5 47 47 ENE 6 9 30.15 1021 10 16.09344 0 0
2:35 pm 14:35 Sunny 74 23.5 51 10.8 45 45 NE 5 7 30.15 1021 10 16.09344 0 0
2:55 pm 14:55 Sunny 75 24.1 53 11.9 47 47 SE 7 11 30.12 1020 10 16.09344 0 0
3:15 pm 15:15 Sunny 76 24.3 51 10.8 43 43 ENE 6 9 30.12 1020 10 16.09344 0 0
3:35 pm 15:35 Sunny 76 24.5 53 11.9 45 45 ESE 3 6 30.12 1020 10 16.09344 0 0
3:55 pm 15:55 Sunny 76 24.6 51 10.8 42 42 ESE 3 6 30.12 1020 10 16.09344 0 0
4:15 pm 16:15 Sunny 77 24.8 53 11.8 44 44 Calm 30.12 1020 10 16.09344 0 0
4:35 pm 16:35 Sunny 77 25 51 10.7 41 41 Calm 30.12 1020 10 16.09344 0 0
4:55 pm 16:55 Sunny 76 24.6 53 11.7 45 45 NE 3 6 30.09 1019 10 16.09344 0 0
5:15 pm 17:15 Sunny 76 24.7 54 12.3 46 46 Calm 30.09 1019 10 16.09344 0 0
5:35 pm 17:35 Sunny 77 25.1 53 11.9 44 44 Calm 30.09 1019 10 16.09344 0 0
5:55 pm 17:55 Sunny 77 25 52 11.2 42 42 Calm 30.09 1019 10 16.09344 0 0
6:15 pm 18:15 Sunny 76 24.3 54 12.3 47 47 NE 3 6 30.09 1019 10 16.09344 0 0
6:35 pm 18:35 Sunny 75 24 55 12.8 50 50 Calm 30.09 1019 10 16.09344 0 0
6:55 pm 18:55 Sunny 76 24.4 55 12.8 48 48 SE 5 7 30.06 1018 10 16.09344 0 0
7:15 pm 19:15 Sunny 74 23.5 56 13.1 52 52 SSE 6 9 30.06 1018 10 16.09344 0 0
7:35 pm 19:35 Sunny 73 22.5 56 13.2 56 56 SE 6 9 30.06 1018 10 16.09344 0 0
7:55 pm 19:55 Sunny 71 21.6 55 13 58 58 SE 6 9 30.06 1018 10 16.09344 0 0
8:15 pm 20:15 Sunny 69 20.4 56 13.1 63 63 SE 6 9 30.09 1019 10 16.09344 0 0
8:35 pm 20:35 Clear 67 19.6 55 13 66 66 SE 5 7 30.09 1019 10 16.09344 0 0
8:55 pm 20:55 Clear 66 18.9 56 13.5 71 71 SSE 5 7 30.09 1019 10 16.09344 0 0
9:15 pm 21:15 Clear 65 18.2 56 13.5 74 74 SSE 5 7 30.09 1019 10 16.09344 0 0
9:35 pm 21:35 Clear 66 18.7 56 13.2 71 71 SSE 6 9 30.09 1019 10 16.09344 0 0
9:55 pm 21:55 Clear 63 17.4 56 13.1 76 76 SSE 3 6 30.15 1021 10 16.09344 0 0
10:15 pm 22:15 Clear 63 17 56 13.1 78 78 SSE 6 9 30.15 1021 10 16.09344 0 0
10:35 pm 22:35 Clear 62 16.7 56 13.2 80 80 SSE 3 6 30.15 1021 10 16.09344 0 0
10:55 pm 22:55 Clear 61 16.3 55 13 81 81 SSE 5 7 30.15 1021 10 16.09344 0 0
11:15 pm 23:15 Clear 61 16.2 55 12.9 81 81 SSE 3 6 30.15 1021 10 16.09344 0 0
11:35 pm 23:35 Clear 61 16.1 55 12.7 80 80 SE 5 7 30.15 1021 10 16.09344 0 0
11:55 pm 23:55 Clear 60 15.6 55 12.7 83 83 SSE 5 7 30.15 1021 10 16.09344 0 0

Powered by AerisWeather